[[{"header":{"parameterUnit":"m.s-1","parameterCategory":1,"la1":30.2991,"la2":30.254,"lo1":-89.0895,"lo2":-89.0444,"dy":0.0017,"dx":0.0017,"nx":28,"ny":28,"refTime":"2024-06-14T09:00:00:Z","depth":0,"parameterNumber":2,"parameterNumberName":"U-component_of_WINDS"},"data":[0,0,0,0,0,0,0,0,0,0,0,0,0,0,0,0,0,0,0,0,0,0,0,0,0,0,0,0,0,0,0,0,0,0,0,0,0,0,0,0,0,0,0,0,0,0,0,0,0,0,0,0,0,0,0,0,0,0,0.0757,0.0757,0,0.0763,0.0763,0.0763,0.077,0.077,0.077,0.077,0.0775,0.0775,0.0775,0,0,0,0,0,0,0,0,0,0,0,0,0,0.0751,0.0751,0.0757,0.0757,0.0757,0.0763,0.0763,0.0763,0.077,0.077,0.077,0.077,0.0775,0.0775,0.0775,0,0,0,0,0,0,0,0,0,0,0,0,0,0.0755,0.0751,0.0757,0.0761,0.0762,0.0763,0.0763,0.0763,0.077,0.077,0.077,0.0771,0.0775,0.0775,0.0775,0.0771,0,0,0.0775,0.0775,0,0,0,0,0,0,0,0,0.0755,0.0755,0.0761,0.0761,0.0762,0.0766,0.0762,0.0766,0.077,0.0767,0.077,0.0771,0.0772,0.0772,0.0773,0.0772,0.0772,0.0775,0.0775,0.0775,0.0775,0,0,0,0,0,0,0,0.0755,0.0755,0.0759,0.0761,0.0761,0.0763,0.0763,0.0763,0.0768,0.0767,0.0768,0.0768,0.0772,0.0773,0.0773,0.0772,0.0775,0.0775,0.0775,0.0775,0.0767,0.0767,0,0,0,0,0,0,0.0754,0.0755,0.0759,0.0759,0.0759,0.0763,0.0764,0.0764,0.0768,0.0769,0.0768,0.0769,0.0773,0.0773,0.0773,0.0768,0.0775,0.0775,0.0775,0.0767,0.0767,0.0767,0,0,0,0,0,0,0.0754,0.0754,0.0759,0.0757,0.0758,0.0763,0.0763,0.0764,0.0765,0.0769,0.077,0.0768,0.0773,0.0773,0.0772,0.0769,0.0775,0.0775,0.0768,0.0767,0.0767,0.0759,0,0,0,0,0,0,0.0753,0.0754,0.0753,0.0757,0.0758,0.0758,0.0763,0.0764,0.0765,0.0766,0.0769,0.077,0.0773,0.0772,0.0772,0.0769,0.0775,0.0768,0.0768,0.0767,0.076,0.0759,0.0758,0,0,0,0,0,0.0753,0.0751,0.0753,0.0753,0.0757,0.0757,0.0758,0.0762,0.0765,0.0763,0.0766,0.077,0.0769,0.0771,0.0772,0.0769,0.0768,0.0768,0.0767,0.076,0.0759,0.0758,0,0,0,0,0,0,0.0746,0.0751,0.0754,0.0753,0.0755,0.0759,0.0757,0.0761,0.0762,0.0762,0.0767,0.0767,0.0765,0.0767,0.0769,0.0765,0.0769,0.0769,0.0764,0.0763,0.0762,0.0761,0.0775,0,0,0,0,0,0.0744,0.0744,0.0749,0.0747,0.0748,0.0753,0.0753,0.0756,0.0758,0.0759,0.0761,0.0763,0.0763,0.0763,0.0763,0.076,0.076,0.0758,0.0757,0.0756,0.0756,0.0753,0.0752,0.0765,0.0765,0.0765,0,0,0.074,0.0743,0.0743,0.0746,0.0748,0.0748,0.0753,0.0753,0.0753,0.0759,0.0757,0.0759,0.0761,0.0759,0.0758,0.076,0.0752,0.0756,0.0755,0.0755,0.0752,0.0751,0.075,0.0765,0.0765,0.0765,0,0,0.0733,0.0736,0.0735,0.0736,0.0739,0.0742,0.0741,0.0745,0.0747,0.0745,0.075,0.0749,0.075,0.0751,0.0751,0.0744,0.0747,0.0744,0.0738,0.0736,0.0735,0.0734,0.073,0.0729,0.0743,0.0743,0.0743,0,0.0728,0.0728,0.0733,0.0733,0.0733,0.0739,0.0737,0.0738,0.0741,0.0741,0.0744,0.0744,0.0746,0.0743,0.0741,0.0742,0.0741,0.0743,0.0735,0.0734,0.0733,0.073,0.0729,0.0743,0.0743,0.0743,0.0743,0,0.0722,0.0722,0.072,0.0723,0.0723,0.0722,0.0726,0.0726,0.0729,0.0731,0.0729,0.0732,0.0732,0.0732,0.0735,0.0729,0.0731,0.0734,0.0738,0.0731,0.0728,0.0727,0.0742,0.0742,0.0743,0.0743,0,0,0.071,0.0715,0.0714,0.0715,0.0718,0.0718,0.0717,0.0718,0.0717,0.0719,0.0717,0.0717,0.072,0.0721,0.0723,0.0721,0.0714,0.0725,0.0725,0.0722,0.0708,0.0705,0.0703,0.0717,0.0716,0.0716,0.0707,0,0.0703,0.0702,0.0706,0.0703,0.0702,0.0707,0.0706,0.0708,0.071,0.0709,0.0711,0.0711,0.0715,0.0715,0.0714,0.0716,0.0711,0.0716,0.0714,0.0714,0.0713,0.0702,0.0699,0.069,0.0706,0.0706,0.0706,0,0.0695,0.0696,0.0693,0.0696,0.0696,0.0695,0.0695,0.0695,0.0697,0.0698,0.0699,0.0702,0.07,0.0705,0.0702,0.0705,0.0704,0.0705,0.0705,0.0704,0.0709,0.07,0.0688,0.0686,0.0704,0.0704,0.0704,0,0.0686,0.0687,0.0685,0.0685,0.0689,0.0688,0.0689,0.0691,0.0691,0.0691,0.0691,0.0691,0.0691,0.0691,0.0694,0.0697,0.069,0.0695,0.069,0.069,0.0688,0.0688,0.0675,0.0689,0.0689,0.0689,0.0689,0,0.0677,0.0675,0.0681,0.0679,0.0677,0.0681,0.0678,0.068,0.0681,0.068,0.0685,0.0683,0.0688,0.0686,0.0689,0.0685,0.0685,0.0686,0.0686,0.0685,0.0685,0.0684,0.0685,0.0689,0.0689,0.0689,0.0689,0,0.0667,0.067,0.0668,0.0672,0.0672,0.067,0.0673,0.0671,0.0674,0.0672,0.0672,0.0675,0.0674,0.0677,0.0676,0.0678,0.0672,0.0674,0.0672,0.0672,0.0667,0.0667,0.0652,0.065,0.0667,0.0666,0.0666,0,0.0661,0.0659,0.0662,0.0662,0.0663,0.0662,0.0662,0.0666,0.0666,0.0667,0.0665,0.0664,0.0664,0.0661,0.0663,0.0663,0.0664,0.0659,0.0664,0.0662,0.0663,0.0662,0.0662,0.0657,0.0657,0.0657,0.0657,0,0.0649,0.0651,0.0651,0.0651,0.0651,0.0652,0.0652,0.0651,0.0656,0.0655,0.0654,0.0653,0.0652,0.0651,0.0651,0.0651,0.0654,0.0655,0.0654,0.0652,0.0651,0.065,0.0668,0.0655,0.0656,0.0656,0.0656,0.0656,0.064,0.0639,0.0641,0.064,0.0641,0.0641,0.064,0.0642,0.0641,0.0641,0.0643,0.0641,0.0642,0.0642,0.0642,0.064,0.0642,0.0641,0.064,0.0639,0.0638,0.0651,0.064,0.064,0.064,0.064,0.064,0,0.0629,0.063,0.0629,0.063,0.0629,0.0633,0.0634,0.0632,0.0631,0.0631,0.0631,0.0629,0.0628,0.0629,0.0628,0.0626,0.0627,0.0626,0.0625,0.0625,0.0637,0.0637,0.0624,0.0624,0.0624,0.0624,0.0624,0.0624,0.0622,0.062,0.0622,0.0619,0.062,0.0618,0.0618,0.0618,0.0619,0.0617,0.0615,0.0617,0.0617,0.0616,0.0615,0.0615,0.0614,0.0612,0.0612,0.0623,0.0625,0.0626,0.0627,0.0612,0.0612,0.0601,0.0601,0.0601]},{"header":{"parameterUnit":"m.s-1","parameterCategory":1,"la1":30.2991,"la2":30.254,"lo1":-89.0895,"lo2":-89.0444,"dy":0.0017,"dx":0.0017,"nx":28,"ny":28,"refTime":"2024-06-14T09:00:00:Z","depth":0,"parameterNumber":3,"parameterNumberName":"V-component_of_WINDS"},"data":[0,0,0,0,0,0,0,0,0,0,0,0,0,0,0,0,0,0,0,0,0,0,0,0,0,0,0,0,0,0,0,0,0,0,0,0,0,0,0,0,0,0,0,0,0,0,0,0,0,0,0,0,0,0,0,0,0,0,-0.2934,-0.2934,0,-0.2965,-0.2966,-0.2966,-0.298,-0.298,-0.298,-0.298,-0.3015,-0.3015,-0.3016,0,0,0,0,0,0,0,0,0,0,0,0,0,-0.2888,-0.2888,-0.2934,-0.2934,-0.2934,-0.2965,-0.2966,-0.2966,-0.298,-0.298,-0.298,-0.298,-0.3014,-0.3015,-0.3016,0,0,0,0,0,0,0,0,0,0,0,0,0,-0.2912,-0.2889,-0.2933,-0.2945,-0.2947,-0.2965,-0.2966,-0.2966,-0.298,-0.298,-0.298,-0.298,-0.3014,-0.3015,-0.3017,-0.3026,0,0,-0.3021,-0.3022,0,0,0,0,0,0,0,0,-0.2911,-0.2914,-0.2943,-0.2944,-0.2946,-0.2969,-0.2962,-0.2986,-0.2981,-0.2968,-0.298,-0.298,-0.2999,-0.3002,-0.3008,-0.3028,-0.303,-0.3021,-0.3022,-0.3023,-0.3023,0,0,0,0,0,0,0,-0.2909,-0.2913,-0.2946,-0.2943,-0.2945,-0.295,-0.2953,-0.2967,-0.2984,-0.2969,-0.297,-0.2973,-0.3,-0.3007,-0.3009,-0.303,-0.3021,-0.3022,-0.3023,-0.3024,-0.3061,-0.3061,0,0,0,0,0,0,-0.2905,-0.2911,-0.2945,-0.2947,-0.2928,-0.2951,-0.2954,-0.2962,-0.2983,-0.2987,-0.2973,-0.2974,-0.3004,-0.3007,-0.301,-0.3024,-0.3023,-0.3024,-0.3025,-0.3061,-0.3061,-0.3061,0,0,0,0,0,0,-0.2904,-0.2908,-0.2944,-0.293,-0.2934,-0.2951,-0.2959,-0.2962,-0.2969,-0.2987,-0.299,-0.2977,-0.3004,-0.3008,-0.3023,-0.3026,-0.3024,-0.3026,-0.3061,-0.3061,-0.3061,-0.3051,0,0,0,0,0,0,-0.2903,-0.2908,-0.2911,-0.2929,-0.2935,-0.2955,-0.296,-0.2963,-0.2971,-0.2972,-0.2991,-0.2994,-0.3005,-0.302,-0.3024,-0.3027,-0.3027,-0.3061,-0.3061,-0.3061,-0.3051,-0.3051,-0.3051,0,0,0,0,0,-0.2901,-0.2907,-0.2911,-0.2915,-0.2939,-0.2955,-0.2958,-0.297,-0.2971,-0.2975,-0.2987,-0.2993,-0.3025,-0.3022,-0.3026,-0.303,-0.3061,-0.3061,-0.3061,-0.3052,-0.3051,-0.3051,0,0,0,0,0,0,-0.2888,-0.2909,-0.2914,-0.2926,-0.2938,-0.2957,-0.2962,-0.2969,-0.2982,-0.2982,-0.2997,-0.3001,-0.3014,-0.3023,-0.302,-0.3041,-0.3043,-0.3045,-0.3035,-0.3034,-0.3034,-0.3032,-0.3028,0,0,0,0,0,-0.2887,-0.2897,-0.2915,-0.2924,-0.293,-0.2945,-0.2952,-0.296,-0.2974,-0.2979,-0.2992,-0.3006,-0.3019,-0.3027,-0.304,-0.3053,-0.3058,-0.3058,-0.3058,-0.3057,-0.3058,-0.3067,-0.3068,-0.3063,-0.3063,-0.3063,0,0,-0.2884,-0.2897,-0.2902,-0.2922,-0.2932,-0.2943,-0.2949,-0.296,-0.2969,-0.2981,-0.2995,-0.3006,-0.3022,-0.3036,-0.3043,-0.3044,-0.3061,-0.3058,-0.3057,-0.3059,-0.3067,-0.3068,-0.3068,-0.3063,-0.3063,-0.3063,0,0,-0.2884,-0.2894,-0.2903,-0.2914,-0.293,-0.294,-0.2943,-0.2961,-0.2968,-0.2982,-0.2992,-0.3003,-0.3025,-0.3036,-0.3045,-0.3051,-0.3058,-0.3055,-0.3054,-0.3062,-0.3063,-0.3063,-0.3066,-0.3067,-0.3056,-0.3056,-0.3056,0,-0.2878,-0.2895,-0.2907,-0.2918,-0.2927,-0.2938,-0.2948,-0.2958,-0.2978,-0.2984,-0.2985,-0.3014,-0.3025,-0.3043,-0.3044,-0.3051,-0.3055,-0.3053,-0.3061,-0.3062,-0.3063,-0.3066,-0.3067,-0.3056,-0.3056,-0.3056,-0.3056,0,-0.2888,-0.2899,-0.2904,-0.2923,-0.2932,-0.2942,-0.2957,-0.2965,-0.2973,-0.2984,-0.2999,-0.3014,-0.303,-0.3035,-0.3043,-0.3054,-0.3054,-0.3058,-0.3061,-0.3062,-0.3066,-0.3067,-0.3055,-0.3055,-0.3055,-0.3055,0,0,-0.288,-0.2906,-0.2907,-0.2917,-0.2936,-0.2945,-0.2957,-0.2973,-0.298,-0.2994,-0.3004,-0.3023,-0.3027,-0.3037,-0.3046,-0.3054,-0.3059,-0.3057,-0.3058,-0.3057,-0.3074,-0.3071,-0.3072,-0.3064,-0.3064,-0.3064,-0.3072,0,-0.2883,-0.2903,-0.2915,-0.2931,-0.2942,-0.2954,-0.2964,-0.2978,-0.2988,-0.3,-0.3012,-0.3025,-0.3029,-0.3036,-0.3043,-0.3056,-0.3062,-0.3056,-0.3075,-0.3075,-0.307,-0.3073,-0.307,-0.3077,-0.3074,-0.3074,-0.3074,0,-0.2889,-0.2902,-0.2919,-0.2938,-0.2943,-0.2952,-0.2969,-0.2979,-0.2996,-0.3003,-0.3015,-0.3024,-0.3038,-0.3039,-0.3059,-0.3054,-0.3063,-0.3071,-0.3071,-0.3074,-0.3075,-0.3076,-0.3079,-0.308,-0.3076,-0.3076,-0.3076,0,-0.2882,-0.2904,-0.2918,-0.2925,-0.2947,-0.2954,-0.2963,-0.2979,-0.2989,-0.3004,-0.301,-0.3026,-0.3035,-0.3048,-0.3062,-0.3061,-0.3081,-0.3083,-0.3088,-0.3088,-0.3091,-0.3091,-0.3096,-0.3096,-0.3096,-0.3096,-0.3096,0,-0.2884,-0.2894,-0.2915,-0.2923,-0.2935,-0.295,-0.2961,-0.2972,-0.2987,-0.2998,-0.301,-0.302,-0.3038,-0.3051,-0.3062,-0.3077,-0.3081,-0.3088,-0.3091,-0.3087,-0.3086,-0.3093,-0.3093,-0.3097,-0.3096,-0.3096,-0.3096,0,-0.2879,-0.2893,-0.2908,-0.2929,-0.2934,-0.2942,-0.296,-0.2969,-0.298,-0.2995,-0.2999,-0.3017,-0.3033,-0.3049,-0.307,-0.3078,-0.3094,-0.3097,-0.3088,-0.3089,-0.3094,-0.3093,-0.3104,-0.3106,-0.3104,-0.3104,-0.3104,0,-0.2879,-0.2887,-0.2909,-0.2917,-0.2927,-0.294,-0.2949,-0.2964,-0.2974,-0.2994,-0.3001,-0.3018,-0.3032,-0.3058,-0.3073,-0.309,-0.3095,-0.3097,-0.3097,-0.3094,-0.3096,-0.3095,-0.3097,-0.3097,-0.3097,-0.3097,-0.3097,0,-0.2879,-0.2886,-0.2899,-0.2915,-0.2927,-0.294,-0.2954,-0.296,-0.2978,-0.2989,-0.3006,-0.3017,-0.3039,-0.3056,-0.3075,-0.3087,-0.3095,-0.3097,-0.3099,-0.3095,-0.309,-0.3094,-0.3087,-0.3096,-0.3097,-0.3097,-0.3097,-0.3097,-0.2877,-0.2885,-0.2902,-0.2917,-0.2929,-0.2942,-0.2952,-0.2965,-0.2978,-0.2998,-0.3006,-0.3023,-0.3041,-0.3067,-0.3078,-0.3093,-0.3095,-0.3097,-0.3098,-0.3099,-0.3098,-0.3087,-0.3096,-0.3096,-0.3096,-0.3096,-0.3096,0,-0.2878,-0.2889,-0.2903,-0.2922,-0.2934,-0.2941,-0.2957,-0.2967,-0.2982,-0.2997,-0.3011,-0.3031,-0.3048,-0.3066,-0.3084,-0.3092,-0.3097,-0.3097,-0.3096,-0.3099,-0.3095,-0.3092,-0.3093,-0.3093,-0.3093,-0.3093,-0.3093,-0.3093,-0.2879,-0.2894,-0.2903,-0.2924,-0.2936,-0.2953,-0.2961,-0.2974,-0.2987,-0.3008,-0.3022,-0.3033,-0.305,-0.307,-0.3087,-0.3091,-0.3098,-0.3097,-0.3103,-0.3099,-0.3099,-0.3099,-0.3096,-0.3098,-0.3098,-0.3106,-0.3106,-0.3106]}]]